TimeEDT,TemperatureF,Dew PointF,Humidity,Sea Level PressureIn,VisibilityMPH,Wind Direction,Wind SpeedMPH,Gust SpeedMPH,PrecipitationIn,Events,Conditions,WindDirDegrees,DateUTC
12:51 AM,41.9,22.1,45,30.76,10.0,Variable,3.5,-,N/A,,Clear,0,2013-04-05 04:51:00
1:51 AM,39.9,24.1,53,30.73,10.0,Variable,4.6,-,N/A,,Clear,0,2013-04-05 05:51:00
2:51 AM,38.8,26.1,60,30.71,10.0,Variable,3.5,-,N/A,,Clear,0,2013-04-05 06:51:00
3:51 AM,37.9,27.1,65,30.69,10.0,SSE,4.6,-,N/A,,Clear,150,2013-04-05 07:51:00
4:51 AM,37.9,28.0,68,30.69,10.0,Calm,Calm,-,N/A,,Clear,0,2013-04-05 08:51:00
5:51 AM,37.9,27.1,65,30.66,10.0,Calm,Calm,-,N/A,,Clear,0,2013-04-05 09:51:00
6:51 AM,37.9,27.1,65,30.66,10.0,Calm,Calm,-,N/A,,Clear,0,2013-04-05 10:51:00
7:51 AM,38.8,26.1,60,30.65,10.0,Variable,3.5,-,N/A,,Clear,0,2013-04-05 11:51:00
8:51 AM,41.9,24.1,49,30.63,10.0,Calm,Calm,-,N/A,,Clear,0,2013-04-05 12:51:00
9:51 AM,47.8,23.0,38,30.60,10.0,Variable,4.6,-,N/A,,Clear,0,2013-04-05 13:51:00
10:51 AM,50.0,20.1,31,30.58,10.0,NW,8.1,-,N/A,,Clear,310,2013-04-05 14:51:00
11:51 AM,52.9,18.1,26,30.54,10.0,Calm,Calm,-,N/A,,Clear,0,2013-04-05 15:51:00
12:51 PM,54.9,16.2,22,30.48,10.0,Calm,Calm,-,N/A,,Clear,0,2013-04-05 16:51:00
1:51 PM,56.8,16.2,20,30.44,10.0,North,3.5,-,N/A,,Scattered Clouds,350,2013-04-05 17:51:00
2:51 PM,61.0,19.0,20,30.39,10.0,NW,18.4,24.2,N/A,,Scattered Clouds,320,2013-04-05 18:51:00
3:51 PM,59.0,19.0,21,30.38,10.0,NW,12.7,18.4,N/A,,Scattered Clouds,320,2013-04-05 19:51:00
4:51 PM,57.9,20.1,23,30.40,10.0,NNW,18.4,23.0,N/A,,Scattered Clouds,330,2013-04-05 20:51:00
5:51 PM,55.9,18.1,23,30.42,10.0,NNW,16.1,23.0,N/A,,Scattered Clouds,330,2013-04-05 21:51:00
6:51 PM,52.9,19.0,26,30.45,10.0,NNW,18.4,25.3,N/A,,Scattered Clouds,330,2013-04-05 22:51:00
7:51 PM,48.9,22.1,35,30.51,10.0,NNW,18.4,28.8,N/A,,Scattered Clouds,340,2013-04-05 23:51:00
8:51 PM,45.0,24.1,44,30.56,10.0,North,15.0,25.3,N/A,,Clear,360,2013-04-06 00:51:00
9:51 PM,41.9,25.2,52,30.60,10.0,NNW,18.4,-,N/A,,Clear,330,2013-04-06 01:51:00
10:51 PM,39.9,24.1,53,30.61,10.0,NW,11.5,-,N/A,,Clear,320,2013-04-06 02:51:00
11:51 PM,38.8,21.0,49,30.64,10.0,NW,16.1,25.3,N/A,,Clear,320,2013-04-06 03:51:00